This is the latest recevied weather packets stored in our database for station/object SR6WVX. If no packets are shown the sender has not sent any weather packets the latest 10 day(s).
| Time | Temp. | Humidity | Pressure | Rain* | Wind** | Luminosity | Snow |
|---|---|---|---|---|---|---|---|
| 1777724912 | 30.56° C | 22% | 1016.8 hPa | 0 mm | - | - | - |
| 1777724612 | 30.56° C | 22% | 1016.9 hPa | 0 mm | - | - | - |
| 1777724311 | 31.11° C | 23% | 1017 hPa | 0 mm | - | - | - |
| 1777724011 | 30.56° C | 23% | 1017.1 hPa | 0 mm | - | - | - |
| 1777723711 | 30.56° C | 23% | 1017.2 hPa | 0 mm | - | - | - |
| 1777723411 | 30.56° C | 23% | 1017.3 hPa | 0 mm | - | - | - |
| 1777723110 | 31.11° C | 22% | 1017.4 hPa | 0 mm | - | - | - |
| 1777722810 | 31.11° C | 24% | 1017.4 hPa | 0 mm | - | - | - |
| 1777722510 | 30.56° C | 22% | 1017.5 hPa | 0 mm | - | - | - |
| 1777722209 | 30.56° C | 24% | 1017.3 hPa | 0 mm | - | - | - |
| 1777721909 | 30.56° C | 23% | 1017.6 hPa | 0 mm | - | - | - |
| 1777721609 | 30° C | 22% | 1017.7 hPa | 0 mm | - | - | - |
| 1777721309 | 30° C | 23% | 1017.8 hPa | 0 mm | - | - | - |
| 1777721008 | 29.44° C | 23% | 1017.8 hPa | 0 mm | - | - | - |
| 1777720708 | 29.44° C | 23% | 1017.9 hPa | 0 mm | - | - | - |
| 1777720408 | 29.44° C | 23% | 1018 hPa | 0 mm | - | - | - |
| 1777720108 | 30° C | 25% | 1018.2 hPa | 0 mm | - | - | - |
| 1777719807 | 30° C | 25% | 1018 hPa | 0 mm | - | - | - |
| 1777719507 | 30° C | 25% | 1018 hPa | 0 mm | - | - | - |
| 1777719207 | 29.44° C | 26% | 1018.1 hPa | 0 mm | - | - | - |
| 1777718907 | 28.33° C | 25% | 1018.2 hPa | 0 mm | - | - | - |
| 1777718606 | 28.89° C | 23% | 1018.3 hPa | 0 mm | - | - | - |
| 1777718306 | 29.44° C | 25% | 1018.3 hPa | 0 mm | - | - | - |
| 1777718006 | 29.44° C | 25% | 1018.2 hPa | 0 mm | - | - | - |
| 1777717705 | 28.89° C | 25% | 1018.4 hPa | 0 mm | - | - | - |
* Rain latest hour (hover to see other rain measurements)
** Current wind speed in m/s (hover to see current wind gust speed)